Other Public Products
Issued by NWS Grand Forks, ND

Home | Current Version | Previous Version | Graphics & Text | Print | Product List | Glossary On
Versions: 1 2 3 4 5 6 7 8 9 10 11 12 13 14 15 16 17 18 19 20 21 22 23 24 25 26 27 28 29 30 31 32 33 34 35 36 37 38 39 40 41 42 43 44 45 46 47 48 49 50
000
FPUS83 KFGF 220631
OPUFGF
PRAIRIE TO PINES WEATHER ROUNDUP
NATIONAL WEATHER SERVICE EASTERN NORTH DAKOTA/GRAND FORKS ND
100 AM CDT SAT JUL 22 2017

 **SATELLITE DATA USED TO AUGMENT SKY COVER AT AUTOMATED STATIONS**
 *****  WEATHER ACROSS EASTERN NORTH DAKOTA  *****

CITY           SKY/WX    TMP DP  RH WIND       PRES   REMARKS
GRAND FORKS    FAIR      71  71 100 CALM      29.74F
6HR MIN TEMP:  71; 6HR MAX TEMP:  83;

GRAND FORKS AF LGT RAIN  68  68 100 N3        29.77R
GRAND CITY NWS NOT AVBL
BUXTON           N/A     67  67  97 S7          N/A
DEVILS LAKE    MOCLDY    66  65  96 S6        29.82S
6HR MIN TEMP:  66; 6HR MAX TEMP:  83; 6HR PCP:  0.41;

FARGO          FAIR      72  67  84 S9        29.76S
6HR MIN TEMP:  69; 6HR MAX TEMP:  83; 6HR PCP: TRACE;

WAHPETON ARPT  FAIR      68  64  88 E6        29.80S
$$

 *****  WEATHER ACROSS CENTRAL AND WESTERN NORTH DAKOTA  *****

CITY           SKY/WX    TMP DP  RH WIND       PRES   REMARKS
JAMESTOWN      MOCLDY    70  66  87 E3        29.80S
6HR MIN TEMP:  70; 6HR MAX TEMP:  82; 6HR PCP: TRACE;

BISMARCK       FAIR      65  63  93 NW6       29.86R
6HR MIN TEMP:  63; 6HR MAX TEMP:  91; 6HR PCP:  0.60;

MINOT          FAIR      68  60  75 W7        29.85S
6HR MIN TEMP:  65; 6HR MAX TEMP:  90;

MINOT AFB      FAIR      61  56  85 W7        29.83S
6HR MIN TEMP:  61; 6HR MAX TEMP:  87;

GARRISON         N/A     62  58  86 NW6       29.87R
6HR MIN TEMP:  61; 6HR MAX TEMP:  88;

WILLISTON      FAIR      64  47  53 E7        29.90R
6HR MIN TEMP:  64; 6HR MAX TEMP:  92;

DICKINSON      FAIR      64  41  42 NW8       29.90R
6HR MIN TEMP:  63; 6HR MAX TEMP:  91;

HETTINGER      FAIR      62  44  51 W6        29.94R
6HR MIN TEMP:  59; 6HR MAX TEMP:  92;

$$

 *****  OTHER OBSERVATIONS NORTHEAST NORTH DAKOTA  *****

CITY           SKY/WX    TMP DP  RH WIND       PRES   REMARKS
WALHALLA       NOT AVBL
LANGDON        MOCLDY    68  68 100 S7        29.80R
CAVALIER       FAIR      66  66 100 SE9       29.75R
GRAFTON        LGT RAIN  68  68 100 CALM      29.79R
CANDO          NOT AVBL
FORT TOTTEN      N/A     68  65  90 S2        29.95S
ROLLA            N/A     61  61 100 NW7       29.83S
RUGBY          NOT AVBL
 ***** THE ABOVE OBSERVATIONS ARE NON NWS ARE NOT QUALITY
        CONTROLLED AND MAY MIS-REPORT RAIN FOR SNOW...
$$

 *****  OTHER OBSERVATIONS SOUTHEAST NORTH DAKOTA *****

CITY           SKY/WX    TMP DP  RH WIND       PRES   REMARKS
COOPERSTOWN    FAIR      68  66  94 W5        29.79R
VALLEY CITY    FAIR      68  68 100 SW6       29.80F
OAKES          NOT AVBL
GWINNER        CLEAR     72  68  88 SE10G17   29.78S
SHEYENNE NWR     N/A     69  67  94 CALM      29.95S
BUFFALO          N/A     68  62  82 SW7         N/A
WYNDMERE       NOT AVBL
 ***** THE ABOVE OBSERVATIONS ARE NON NWS ARE NOT QUALITY
       CONTROLLED AND MAY MIS-REPORT RAIN FOR SNOW...
$$

  *****  WEATHER ACROSS NORTHERN MINNESOTA  *****

CITY           SKY/WX    TMP DP  RH WIND       PRES   REMARKS
FLAG ISLAND    FAIR      66  57  72 E6        29.79S
WARROAD        FAIR      66  61  82 E7        29.80F
ROSEAU         FAIR      63  57  82 CALM      29.79F
HALLOCK        LGT RAIN  66  63  88 SE6       29.77R
THF RVR FALLS  FAIR      65  64  97 E5        29.77F
6HR MIN TEMP:  65; 6HR MAX TEMP:  73;

HALSTAD          N/A     69  66  90 SW2         N/A
FOSSTON        FAIR      61  61 100 CALM      29.78R
BAUDETTE       FAIR      59  59 100 E6        29.80F
6HR MIN TEMP:  59; 6HR MAX TEMP:  74;

WASKISH        NOT AVBL
CROOKSTON      FAIR      66  66 100 CALM      29.76R
$$
  *****  WEATHER ACROSS CENTRAL AND WEST MINNESOTA  *****

CITY           SKY/WX    TMP DP  RH WIND       PRES   REMARKS
BEMIDJI        FAIR      61  61  99 E6        29.78F
PARK RAPIDS    FAIR      65  62  90 SW5       29.79S
6HR MIN TEMP:  64; 6HR MAX TEMP:  69; 6HR PCP:  0.01;

WADENA         FAIR      66  66 100 CALM      29.79S
DETROIT LAKES  FAIR      68  64  88 S7        29.80F
MOORHEAD       FAIR      72  66  83 S7        29.77F
FERGUS FALLS   FAIR      70  68  94 CALM      29.81R
ELBOW LAKE     FAIR      66  65  96 CALM      29.81S
6HR MIN TEMP:  65; 6HR MAX TEMP:  81; 6HR PCP:  0.64;

MORRIS MN      FAIR      70  66  88 S7        29.80R
STAPLES        FAIR      64  63  94 CALM      29.80R
WHEATON        FAIR      70  66  88 E6        29.81R
$$
  *****  WEATHER ELSEWHERE ACROSS MINNESOTA  *****

CITY           SKY/WX    TMP DP  RH WIND       PRES   REMARKS
DULUTH         FAIR      59  59 100 N6        29.80F
6HR MIN TEMP:  59; 6HR MAX TEMP:  70; 6HR PCP:  1.34;

INTRNTL FALLS  FAIR      56  53  90 CALM      29.81F FOG
6HR MIN TEMP:  54; 6HR MAX TEMP:  71;

ELY            FAIR      61  54  77 CALM      29.83F
CLOQUET        CLOUDY    63  59  88 NW3       29.81F
BRAINERD       FAIR      66  65  96 S5        29.79S
6HR MIN TEMP:  65; 6HR MAX TEMP:  80; 6HR PCP:  0.90;

HIBBING        FOG       54  54 100 CALM      29.81F VSB 1/2
6HR MIN TEMP:  56; 6HR MAX TEMP:  64; 6HR PCP:  0.13;

ALEXANDRIA     FAIR      68  67  96 NE5       29.82R
6HR MIN TEMP:  65; 6HR MAX TEMP:  81; 6HR PCP:  0.38;

SAINT CLOUD    FAIR      66  66 100 NE3       29.78S
6HR MIN TEMP:  66; 6HR MAX TEMP:  80; 6HR PCP:  0.65;

MINNEAPOLIS    FAIR      72  64  76 NE7       29.82F
6HR MIN TEMP:  72; 6HR MAX TEMP:  82;

$$

  *****  WEATHER ACROSS SOUTH DAKOTA  *****

CITY           SKY/WX    TMP DP  RH WIND       PRES   REMARKS
SIOUX FALLS    MOCLDY    76  74  93 E8        29.81R
6HR MIN TEMP:  76; 6HR MAX TEMP:  84;

BROOKINGS      MOCLDY    73  72  94 N12       29.82R
WATERTOWN      TSTM      66  66 100 SE23G30   29.77F FOG
6HR MIN TEMP:  65; 6HR MAX TEMP:  85; 6HR PCP:  0.57;

HURON          TSTM      68  67  96 S8        29.83F
6HR MIN TEMP:  67; 6HR MAX TEMP:  87; 6HR PCP:  0.48;

SISSETON         N/A     75  70  84 CALM      29.79S
ABERDEEN       FAIR      69  66  90 SW3       29.81R
6HR MIN TEMP:  69; 6HR MAX TEMP:  90; 6HR PCP:  0.68;

MITCHELL       TSTM      70  67  90 N22G36    29.86R FOG
PIERRE         FAIR      73  66  78 NE7       29.81R
6HR MIN TEMP:  73; 6HR MAX TEMP:  97;

MOBRIDGE       FAIR      69  65  86 N7        29.83R
RAPID CITY     FAIR      69  44  40 W7        29.96R
6HR MIN TEMP:  69; 6HR MAX TEMP:  93;

$$

  *****  SOME WEATHER IN NEARBY STATES *****

CITY           SKY/WX    TMP DP  RH WIND       PRES   REMARKS
GLASGOW MT     FAIR      64  39  39 NE10      29.95R
6HR MIN TEMP:  64; 6HR MAX TEMP:  87;

GREAT FALLS MT FAIR      63  29  27 NW7       30.09R
6HR MIN TEMP:  61; 6HR MAX TEMP:  86;

CHEYENNE WY    MOCLDY    63  53  70 SW15      30.21S
6HR MIN TEMP:  60; 6HR MAX TEMP:  77; 6HR PCP:  0.07;

SCOTTSBLUFF NE FAIR      75  51  43 S8        30.05S
6HR MIN TEMP:  75; 6HR MAX TEMP:  92;

OMAHA NE       MOCLDY    90  68  48 S13       29.71F HX  94
6HR MIN TEMP:  87; 6HR MAX TEMP: 101;

DES MOINES IA  FAIR      87  73  62 SW16G25   29.70F HX  94
6HR MIN TEMP:  87; 6HR MAX TEMP:  96;

DAVENPORT IA   MOCLDY    76  71  85 NE17G30   29.85R
6HR MIN TEMP:  74; 6HR MAX TEMP:  84; 6HR PCP:  0.16;

CHICAGO IL     TSTM      73  70  90 SW5       29.85S FOG
6HR MIN TEMP:  73; 6HR MAX TEMP:  80; 6HR PCP:  0.49;

EAU CLAIRE WI  FAIR      69  63  81 CALM      29.83F
6HR MIN TEMP:  67; 6HR MAX TEMP:  76;

LA CROSSE WI   CLOUDY    73  70  90 E7        29.84R
6HR MIN TEMP:  73; 6HR MAX TEMP:  75; 6HR PCP:  0.04;

$$

  *****  SOME NATIONAL WEATHER *****

CITY           SKY/WX    TMP DP  RH WIND       PRES   REMARKS
LA GUARDIA NY  MOCLDY    84  72  67 NW12      29.85S


USA.gov is the U.S. government's official web portal to all federal, state and local government web resources and services.